一网星座-0448星 (ONEWEB-0448 )

导读 | 豆包AI

ONEWEB-0448是英国主导的OneWeb卫星互联网星座中的一颗通信卫星,于2022年2月10日发射入轨。OneWeb项目旨在通过近地轨道卫星星座,为全球提供可负担的高速宽带互联网接入服务。ONEWEB-0448运行在低地球轨道,属于Ku波段通信卫星,是OneWeb完成全球覆盖布局的重要组成部分,助力填补全球网络覆盖空白,尤其服务偏远地区网络接入需求。

Basic Information
目录编号:
51641
目录名称:
ONEWEB-0448
国际标识:
2022-012V
轨道中心:
EARTH
卫星名称:
一网星座-0448星
卫星全名:
一网星座-0448星 (ONEWEB-0448 )
卫星状态:
在轨 (已飞行1493 天)
发射日期:
2022-02-10 UTC
国别 :
英国 (GB)
星等 :
--
Orbit Information
数据来源 国际轨道数据 AOE轨道数据
星历时间 2026-03-14T06:59:20+0800
7小时前
查看轨道信息
2026-03-13T16:00:00+0800
22小时前
查看轨道信息
半长轴 7599.867km 7599.86km
偏心率 0.0001872 0.0001885
轨道倾角 87.877° 87.877°
近地点辐角 89.280° 87.475°
升交点赤经 55.241° 55.368°
平近点角 270.854° 208.196°
近地点 1220.307km 1220.29km
远地点 1223.153km 1223.156km
周期 109.893分钟 109.892分钟
每日圈数 13.103696 13.103715
Detailed Information
平衡模式:
三轴稳定
覆盖范围:
全球
运营商:
一网卫星公司
运营商所在国:
英国
制造商(研发单位):
一网卫星公司
制造商所在国:
英国
使用方式:
暂无
Satellite Introduction
OneWeb卫星网络由648颗重约125公斤的微型卫星组成,运行在1200公里的轨道上。 每颗卫星都能够提供至少每秒8千兆位的吞吐量,以使用其高吞吐量的Ku频段有效载荷为家庭和移动平台提供互联网接入。该卫星仍在工作。
2D Orbit Map
3D Orbit Map
Orbit Altitude Analysis Chart
Orbit Inclination Analysis Chart
Orbit Comprehensive Analysis Chart
View Comprehensive Chart